Hovedside
METAR-TAF:

METAR-TAF

Lufthavner :

Bagdad, Irak

breddegrad: 33-15-45N, lengdegrad: 44-14-04E, høyde over havet: 35 m

Gjeldene værobservasjon

Denne rapporten ble laget for 21 minutter siden, klokken 19:00 UTC
Vind 12 kt fra Sørøst
Temperatur 14°C
Luftfuktighet 47%
Trykk 1013 hPa
Sikt 10 km eller mer
ingen skyer under 1500 m og ingen bygeskyer

METAR: ORBI 181900Z 13012KT CAVOK 14/03 Q1013 NOSIG

Tid: 22:21 (19:21 UTC)

Varsel

Denne rapporten ble laget for 3 timer og 21 minutter siden, klokken 16:00 UTC
Varsel gyldig fra 18. klokken 18 UTC til 19. klokken 18 UTC
Vind 8 kt fra Sør-sørøst
Sikt: 7000 m

TAF: ORBI 181600Z 1818/1918 16008KT 7000 NSC

Værobservasjoner og værvarsel for over 4000 flyplasser (METAR- og TAF-rapporter).

Tilgjengelige stasjoner er representert av de røde og gule prikkene på kartet.

Hold musepekeren over prikken for å se navnet på stasjonen.

Klikk så for å se værobservasjoner og -varsler.

For å forandre kartet kan du klikke på den grønne knappen med svart kryss for å zoome inn, på den grønne knappen med strek for å zoome ut, eller på de grønne pilene for å se tilstøtende kart.


METAR-TAF: